Weather History for Allentown, PA

Change the Weather History Date:

Sunday, June 16, 2013

  Actual Average (KABE) Record (KABE)
Temperature  
Mean Temperature 70 °F 70 °F  
Max Temperature 82 °F 80 °F 96 °F (1957)
Min Temperature 59 °F 59 °F 44 °F (1961)
Degree Days  
Heating Degree Days 0 1  
Month to date heating degree days 28  
Since 1 June heating degree days 28  
Since 1 July heating degree days 5796  
Cooling Degree Days 6 5  
Month to date cooling degree days 64  
Year to date cooling degree days 109  
Since 1 June cooling degree days 64  
Growing Degree Days 20 (Base 50)    
Moisture  
Dew Point 57 °F    
Average Humidity 64    
Maximum Humidity 82    
Minimum Humidity 39    
Precipitation  
Precipitation 0.00 in 0.14 in 2.40 in (1982)
Month to date precipitation 2.29  
Year to date precipitation 19.11  
Snow  
Snow 0.00 in 0.00 in 0.00 in (2002)
Month to date snowfall 0.0  
Since 1 June snowfall 0.0  
Since 1 July snowfall 32.9  
Snow Depth -    
Sea Level Pressure  
Sea Level Pressure 29.93 in    
Wind  
Wind Speed 4 mph (SW)    
Max Wind Speed 20 mph    
Max Gust Speed 31 mph    
Visibility 10 miles    
Events Rain    
T = Trace of Precipitation, MM = Missing Value Source: NWS Daily Summary

Daily Weather History Graph

Daily Weather History Graph

Search for Another Location

Airport:

Trip Planner

Search our weather history database for the weather conditions in past years. The results will help you decide how hot, cold, wet, or windy it might be!

Date:

Astronomy

Jun. 16, 2013 Rise Set
Actual Time 5:30 AM EDT 8:34 PM EDT
Civil Twilight 4:57 AM EDT 9:08 PM EDT
Nautical Twilight 4:15 AM EDT 9:50 PM EDT
Astronomical Twilight 3:25 AM EDT 10:40 PM EDT
Moon 1:06 PM EDT (6/16) 12:36 AM EDT (6/16)
Length of Visible Light 16h 10m
Length of Day
15h 04m
Waxing Crescent, 49% of the Moon is Illuminated
Jun 16
Waxing Crescent
Jun 16
First Quarter
Jun 23
Full
Jun 30
Last Quarter
Jul 8
New

Hourly Weather History & Observations

Time (EDT) Temp. Heat Index Dew Point Humidity Pressure Visibility Wind Dir Wind Speed Gust Speed Precip Events Conditions
12:15 AM 62.6 °F - 53.6 °F 72% 30.02 in 10.0 mi Calm Calm - N/A   Clear
12:35 AM 62.6 °F - 53.6 °F 72% 30.03 in 10.0 mi South 4.6 mph - N/A   Clear
12:55 AM 62.6 °F - 53.6 °F 72% 30.03 in 10.0 mi SSW 3.5 mph - N/A   Clear
1:15 AM 60.8 °F - 53.6 °F 77% 30.02 in 10.0 mi SW 4.6 mph - N/A   Clear
1:35 AM 60.8 °F - 53.6 °F 77% 30.02 in 10.0 mi Calm Calm - N/A   Clear
1:55 AM 60.8 °F - 53.6 °F 77% 30.02 in 10.0 mi Calm Calm - N/A   Clear
2:15 AM 60.8 °F - 53.6 °F 77% 30.02 in 10.0 mi Calm Calm - N/A   Clear
2:35 AM 60.8 °F - 53.6 °F 77% 30.02 in 10.0 mi Calm Calm - N/A   Clear
2:55 AM 60.8 °F - 53.6 °F 77% 30.01 in 10.0 mi Calm Calm - N/A   Clear
3:15 AM 60.8 °F - 53.6 °F 77% 30.02 in 10.0 mi Calm Calm - N/A   Clear
3:35 AM 60.8 °F - 53.6 °F 77% 30.02 in 10.0 mi Calm Calm - N/A   Clear
3:55 AM 60.8 °F - 53.6 °F 77% 30.01 in 10.0 mi South 3.5 mph - N/A   Clear
4:15 AM 60.8 °F - 53.6 °F 77% 30.01 in 10.0 mi Calm Calm - N/A   Clear
4:35 AM 59.0 °F - 53.6 °F 82% 30.01 in 10.0 mi Calm Calm - N/A   Clear
4:55 AM 60.8 °F - 53.6 °F 77% 30.00 in 10.0 mi Calm Calm - N/A   Clear
5:15 AM 59.0 °F - 53.6 °F 82% 30.00 in 10.0 mi Calm Calm - N/A   Clear
5:35 AM 59.0 °F - 53.6 °F 82% 30.00 in 10.0 mi Calm Calm - N/A   Clear
5:55 AM 60.8 °F - 53.6 °F 77% 30.00 in 10.0 mi Calm Calm - N/A   Scattered Clouds
6:15 AM 60.8 °F - 53.6 °F 77% 30.00 in 10.0 mi Calm Calm - N/A   Mostly Cloudy
6:35 AM 60.8 °F - 53.6 °F 77% 30.01 in 10.0 mi Calm Calm - N/A   Overcast
6:55 AM 60.8 °F - 53.6 °F 77% 30.01 in 10.0 mi Calm Calm - N/A   Overcast
7:15 AM 62.6 °F - 55.4 °F 77% 30.01 in 10.0 mi Calm Calm - N/A   Mostly Cloudy
7:35 AM 62.6 °F - 53.6 °F 72% 30.00 in 10.0 mi Calm Calm - N/A   Overcast
7:55 AM 62.6 °F - 55.4 °F 77% 30.00 in 10.0 mi Calm Calm - N/A   Overcast
8:15 AM 62.6 °F - 55.4 °F 77% 29.99 in 10.0 mi Calm Calm - N/A   Overcast
8:35 AM 64.4 °F - 55.4 °F 73% 29.98 in 10.0 mi Calm Calm - N/A   Scattered Clouds
8:55 AM 66.2 °F - 53.6 °F 64% 29.98 in 10.0 mi Calm Calm - N/A   Scattered Clouds
9:15 AM 68.0 °F - 55.4 °F 64% 29.98 in 10.0 mi Calm Calm - N/A   Scattered Clouds
9:35 AM 69.8 °F - 51.8 °F 53% 29.97 in 10.0 mi Calm Calm - N/A   Clear
9:55 AM 71.6 °F - 51.8 °F 50% 29.96 in 10.0 mi Calm Calm - N/A   Clear
10:15 AM 73.4 °F - 53.6 °F 50% 29.96 in 10.0 mi SW 4.6 mph - N/A   Clear
10:35 AM 73.4 °F - 51.8 °F 47% 29.94 in 10.0 mi SW 5.8 mph - N/A   Scattered Clouds
10:55 AM 77.0 °F - 50.0 °F 39% 29.94 in 10.0 mi SW 8.1 mph - N/A   Scattered Clouds
11:15 AM 77.0 °F - 51.8 °F 41% 29.92 in 10.0 mi South 9.2 mph - N/A   Scattered Clouds
11:35 AM 77.0 °F - 51.8 °F 41% 29.91 in 10.0 mi WSW 5.8 mph - N/A   Mostly Cloudy
11:55 AM 77.0 °F - 50.0 °F 39% 29.90 in 10.0 mi WSW 8.1 mph - N/A   Overcast
12:15 PM 78.8 °F - 51.8 °F 39% 29.88 in 10.0 mi SW 11.5 mph 17.3 mph N/A   Mostly Cloudy
12:35 PM 78.8 °F - 51.8 °F 39% 29.88 in 10.0 mi SSW 12.7 mph - N/A   Scattered Clouds
12:55 PM 78.8 °F - 53.6 °F 42% 29.87 in 10.0 mi SSW 11.5 mph 18.4 mph N/A   Scattered Clouds
1:15 PM 78.8 °F - 55.4 °F 44% 29.87 in 10.0 mi SSW 8.1 mph - N/A   Scattered Clouds
1:35 PM 78.8 °F - 55.4 °F 44% 29.86 in 10.0 mi SSW 9.2 mph - N/A   Scattered Clouds
1:55 PM 80.6 °F 80.5 °F 55.4 °F 42% 29.84 in 10.0 mi SW 16.1 mph 21.9 mph N/A   Scattered Clouds
2:15 PM 80.6 °F 80.8 °F 57.2 °F 45% 29.84 in 10.0 mi SW 13.8 mph - N/A   Scattered Clouds
2:35 PM 80.6 °F 80.8 °F 57.2 °F 45% 29.84 in 10.0 mi SW 17.3 mph 25.3 mph N/A   Scattered Clouds
2:55 PM 82.4 °F 82.5 °F 59.0 °F 45% 29.83 in 10.0 mi WSW 13.8 mph 25.3 mph N/A   Scattered Clouds
3:15 PM 82.4 °F 82.5 °F 59.0 °F 45% 29.83 in 10.0 mi WSW 12.7 mph 20.7 mph N/A   Scattered Clouds
3:35 PM 80.6 °F 80.8 °F 57.2 °F 45% 29.83 in 10.0 mi WSW 11.5 mph 20.7 mph N/A   Scattered Clouds
3:55 PM 78.8 °F - 59.0 °F 51% 29.84 in 10.0 mi WSW 19.6 mph 31.1 mph N/A   Scattered Clouds
4:15 PM 78.8 °F - 59.0 °F 51% 29.84 in 10.0 mi WSW 12.7 mph 19.6 mph N/A   Scattered Clouds
4:35 PM 78.8 °F - 59.0 °F 51% 29.85 in 10.0 mi WSW 13.8 mph 28.8 mph N/A   Clear
4:55 PM 77.0 °F - 60.8 °F 57% 29.85 in 10.0 mi SW 11.5 mph 23.0 mph N/A Rain Light Rain
5:15 PM 75.2 °F - 60.8 °F 61% 29.85 in 10.0 mi WSW 10.4 mph 18.4 mph N/A Rain Light Rain
5:35 PM 73.4 °F - 62.6 °F 69% 29.85 in 10.0 mi SW 6.9 mph - N/A   Light Drizzle
5:55 PM 77.0 °F - 62.6 °F 61% 29.84 in 10.0 mi SW 15.0 mph 21.9 mph N/A   Scattered Clouds
6:15 PM 77.0 °F - 62.6 °F 61% 29.84 in 10.0 mi SW 11.5 mph 21.9 mph N/A   Clear
6:35 PM 77.0 °F - 62.6 °F 61% 29.84 in 10.0 mi WSW 8.1 mph 18.4 mph N/A   Clear
6:55 PM 77.0 °F - 62.6 °F 61% 29.85 in 10.0 mi WSW 10.4 mph 17.3 mph N/A   Scattered Clouds
7:15 PM 77.0 °F - 62.6 °F 61% 29.84 in 10.0 mi SW 11.5 mph 17.3 mph N/A   Scattered Clouds
7:35 PM 75.2 °F - 62.6 °F 65% 29.84 in 10.0 mi WSW 9.2 mph - N/A   Clear
7:55 PM 73.4 °F - 62.6 °F 69% 29.85 in 10.0 mi WSW 11.5 mph 18.4 mph N/A   Clear
8:15 PM 73.4 °F - 62.6 °F 69% 29.85 in 10.0 mi SW 9.2 mph - N/A   Clear
8:35 PM 73.4 °F - 62.6 °F 69% 29.85 in 10.0 mi SW 10.4 mph - N/A   Clear
8:55 PM 73.4 °F - 62.6 °F 69% 29.86 in 10.0 mi SW 10.4 mph - N/A   Clear
9:15 PM 73.4 °F - 62.6 °F 69% 29.87 in 10.0 mi WSW 8.1 mph - N/A   Clear
9:35 PM 71.6 °F - 62.6 °F 73% 29.88 in 10.0 mi SW 10.4 mph - N/A   Clear
9:55 PM 71.6 °F - 62.6 °F 73% 29.88 in 10.0 mi SW 9.2 mph - N/A   Clear
10:15 PM 71.6 °F - 62.6 °F 73% 29.89 in 10.0 mi SW 6.9 mph - N/A   Clear
10:35 PM 71.6 °F - 62.6 °F 73% 29.89 in 10.0 mi SW 6.9 mph - N/A   Clear
10:55 PM 69.8 °F - 62.6 °F 78% 29.89 in 10.0 mi SW 6.9 mph - N/A   Clear
11:15 PM 71.6 °F - 62.6 °F 73% 29.89 in 10.0 mi WSW 5.8 mph - N/A   Clear
11:35 PM 69.8 °F - 62.6 °F 78% 29.89 in 10.0 mi WSW 4.6 mph - N/A   Clear
11:55 PM 69.8 °F - 62.6 °F 78% 29.90 in 10.0 mi SW 4.6 mph - N/A   Clear